Tracking 30923 objects as of 1-Jul-2025
HD Live streaming from Space Station
objects crossing your sky now

CZ-4 DEB

Track CZ-4 DEB now!
10-day predictions


NORAD ID: 23254
Int'l Code: 1990-081CK
Perigee: 715.4 km
Apogee: 810.6 km
Inclination: 98.5 °
Period: 99.9 minutes
Semi major axis: 7134 km
RCS: 0.0074 m2 (small)
Launch date: September 3, 1990
Source: People's Republic of China (PRC)
Launch site: Taiyaun Space Center, China (TSC)

Note: This is SATELLITE DEBRIS
Your satellite tracking list
COSMOS 2251 DEB
Track 1 satellite(s)




NASA's NSSDC Master Catalog

Two Line Element Set (TLE):
1 23254U 90081CK  25181.13110059  .00000738  00000-0  23838-3 0  9996
2 23254  98.5129 240.3829 0066706 185.0429 175.0095 14.40788611626948
Source of the keplerian elements: AFSPC